Lompoc, CA

7:47 AM PST on December 14, 2017 (GMT -0800)
Lompoc

Weather History for KLPC - January, 2013

Change the Weather History Date:

Wednesday, January 16, 2013

  Actual Average Record
Temperature  
Mean Temperature 39 °F -  
Max Temperature 50 °F 66 °F 82 °F (1976)
Min Temperature 30 °F 43 °F 24 °F (1963)
Degree Days  
Heating Degree Days 26    
Moisture  
Dew Point 27 °F    
Average Humidity 77    
Maximum Humidity 86    
Minimum Humidity 50    
Precipitation  
Precipitation 0.00 in - - ()
Sea Level Pressure  
Sea Level Pressure 30.29 in    
Wind  
Wind Speed 5 mph (East)    
Max Wind Speed 13 mph    
Max Gust Speed -    
Visibility 10 miles    
Events      
Averages and records for this station are not official NWS values.
T = Trace of Precipitation, MM = Missing Value Source: NWS Daily Summary

Daily Weather History Graph

Daily Weather History Graph

Search for Another Location

Airport or City:

Trip Planner

Search our weather history database for the weather conditions in past years. The results will help you decide how hot, cold, wet, or windy it might be!

Date:

Astronomy

Jan. 16, 2013 Rise Set
Actual Time 7:08 AM PST 5:15 PM PST
Civil Twilight 6:40 AM PST 5:42 PM PST
Nautical Twilight 6:10 AM PST 6:13 PM PST
Astronomical Twilight 5:39 AM PST 6:44 PM PST
Moon 10:02 AM PST (1/16) 10:55 PM PST (1/16)
Length of Visible Light 11h 02m
Length of Day
10h 07m
Waxing Crescent, 29% of the Moon is Illuminated
Jan 16
Waxing Crescent
Jan 18
First Quarter
Jan 26
Full
Feb 3
Last Quarter
Feb 9
New

Hourly Weather History & Observations

Time (PST) Temp. Windchill Dew Point Humidity Pressure Visibility Wind Dir Wind Speed Gust Speed Precip Events Conditions
12:15 AM 33.8 °F - 26.6 °F 75% 30.39 in 10.0 mi Calm Calm - N/A   Clear
12:35 AM 33.8 °F 29.6 °F 28.4 °F 81% 30.39 in 10.0 mi East 4.6 mph - N/A   Clear
12:55 AM 32.0 °F 27.5 °F 26.6 °F 80% 30.38 in 10.0 mi East 4.6 mph - N/A   Clear
1:15 AM 30.2 °F 26.7 °F 26.6 °F 86% 30.39 in 10.0 mi East 3.5 mph - N/A   Clear
1:35 AM 30.2 °F 25.4 °F 26.6 °F 86% 30.39 in 10.0 mi East 4.6 mph - N/A   Clear
1:55 AM 32.0 °F 26.4 °F 26.6 °F 80% 30.39 in 10.0 mi East 5.8 mph - N/A   Clear
2:15 AM 30.2 °F 25.4 °F 26.6 °F 86% 30.39 in 10.0 mi East 4.6 mph - N/A   Clear
2:35 AM 30.2 °F 25.4 °F 26.6 °F 86% 30.39 in 10.0 mi East 4.6 mph - N/A   Clear
2:55 AM 30.2 °F 24.3 °F 26.6 °F 86% 30.39 in 10.0 mi East 5.8 mph - N/A   Clear
3:15 AM 30.2 °F 24.3 °F 26.6 °F 86% 30.38 in 10.0 mi East 5.8 mph - N/A   Clear
3:35 AM 32.0 °F 24.8 °F 26.6 °F 80% 30.38 in 10.0 mi East 8.1 mph - N/A   Clear
3:55 AM 30.2 °F 23.4 °F 26.6 °F 86% 30.37 in 10.0 mi East 6.9 mph - N/A   Clear
4:35 AM 30.2 °F 24.3 °F 26.6 °F 86% 30.37 in 10.0 mi East 5.8 mph - N/A   Clear
4:55 AM 30.2 °F 24.3 °F 26.6 °F 86% 30.36 in 10.0 mi East 5.8 mph - N/A   Clear
5:15 AM 30.2 °F 23.4 °F 26.6 °F 86% 30.36 in 10.0 mi East 6.9 mph - N/A   Clear
5:35 AM 30.2 °F 24.3 °F 26.6 °F 86% 30.36 in 10.0 mi East 5.8 mph - N/A   Clear
5:55 AM 30.2 °F 25.4 °F 26.6 °F 86% 30.36 in 10.0 mi SE 4.6 mph - N/A   Clear
6:55 AM 32.0 °F 27.5 °F 26.6 °F 80% 30.36 in 10.0 mi East 4.6 mph - N/A   Clear
7:55 AM 33.8 °F 27.7 °F 26.6 °F 75% 30.36 in 10.0 mi East 6.9 mph - N/A   Clear
8:15 AM 35.6 °F 29.2 °F 28.4 °F 75% 30.36 in 10.0 mi East 8.1 mph - N/A   Clear
8:35 AM 37.4 °F 32.1 °F 28.4 °F 70% 30.37 in 10.0 mi ESE 6.9 mph - N/A   Clear
8:55 AM 41.0 °F 35.2 °F 28.4 °F 61% 30.37 in 10.0 mi East 9.2 mph - N/A   Clear
9:15 AM 44.6 °F 39.7 °F 28.4 °F 53% 30.36 in 10.0 mi East 9.2 mph - N/A   Clear
9:35 AM 46.4 °F 41.9 °F 28.4 °F 50% 30.37 in 10.0 mi East 9.2 mph - N/A   Clear
9:55 AM 48.2 °F - 30.2 °F 50% 30.36 in 10.0 mi East 6.9 mph - N/A   Clear
10:15 AM 50.0 °F - 32.0 °F 50% 30.35 in 10.0 mi East 5.8 mph - N/A   Clear
10:35 AM - - - N/A% - - North - - N/A   Unknown
10:55 AM - - - N/A% - - North - - N/A   Unknown
11:15 AM - - - N/A% - - North - - N/A   Unknown
11:35 AM - - - N/A% - - North - - N/A   Unknown
11:55 AM - - - N/A% - - North - - N/A   Unknown
12:15 PM - - - N/A% - - North - - N/A   Unknown
12:35 PM - - - N/A% - - North - - N/A   Unknown
12:55 PM - - - N/A% - - North - - N/A   Unknown
1:15 PM - - - N/A% - - North - - N/A   Unknown
1:35 PM - - - N/A% 30.24 in - West 11.5 mph - N/A   Unknown
1:55 PM - - - N/A% 30.24 in 10.0 mi West 11.5 mph - N/A   Clear
2:15 PM - - - N/A% 30.23 in 10.0 mi West 10.4 mph - N/A   Clear
2:35 PM - - - N/A% 30.23 in 10.0 mi West 9.2 mph - N/A   Clear
2:55 PM - - - N/A% 30.23 in 10.0 mi West 11.5 mph - N/A   Clear
3:15 PM - - - N/A% 30.23 in 10.0 mi West 11.5 mph - N/A   Clear
3:55 PM - - - N/A% 30.23 in 10.0 mi West 12.7 mph - N/A   Clear
4:15 PM - - - N/A% 30.23 in 10.0 mi West 11.5 mph - N/A   Clear
4:35 PM - - - N/A% 30.24 in 10.0 mi West 11.5 mph - N/A   Clear
4:55 PM - - - N/A% 30.24 in 10.0 mi WSW 9.2 mph - N/A   Clear
5:15 PM - - - N/A% 30.24 in 10.0 mi WSW 6.9 mph - N/A   Clear
5:35 PM - - - N/A% 30.24 in 10.0 mi WSW 3.5 mph - N/A   Clear
5:55 PM - - - N/A% 30.24 in 10.0 mi West 4.6 mph - N/A   Clear
6:15 PM - - - N/A% 30.24 in 10.0 mi Calm Calm - N/A   Clear
6:35 PM - - - N/A% 30.24 in 10.0 mi Calm Calm - N/A   Clear
6:55 PM - - - N/A% 30.23 in 10.0 mi Calm Calm - N/A   Clear
7:15 PM - - - N/A% 30.23 in 10.0 mi Calm Calm - N/A   Clear
7:35 PM - - - N/A% 30.22 in 10.0 mi East 3.5 mph - N/A   Clear
7:55 PM - - - N/A% 30.22 in 10.0 mi East 5.8 mph - N/A   Clear
8:15 PM - - - N/A% 30.21 in 10.0 mi East 4.6 mph - N/A   Clear
8:35 PM - - - N/A% 30.21 in 10.0 mi ENE 3.5 mph - N/A   Clear
8:55 PM - - - N/A% 30.21 in 10.0 mi East 3.5 mph - N/A   Clear
9:15 PM - - - N/A% 30.20 in 10.0 mi East 4.6 mph - N/A   Clear
9:35 PM - - - N/A% 30.20 in 10.0 mi East 4.6 mph - N/A   Clear
9:55 PM - - - N/A% 30.20 in 10.0 mi East 5.8 mph - N/A   Clear
10:15 PM - - - N/A% 30.20 in 10.0 mi East 4.6 mph - N/A   Clear
10:35 PM - - - N/A% 30.20 in 10.0 mi East 4.6 mph - N/A   Clear
10:55 PM - - - N/A% 30.19 in 10.0 mi East 5.8 mph - N/A   Clear
11:15 PM - - - N/A% 30.19 in 10.0 mi East 5.8 mph - N/A   Clear
11:35 PM - - - N/A% 30.19 in 10.0 mi East 6.9 mph - N/A   Clear
11:55 PM - - - N/A% 30.19 in 10.0 mi East 5.8 mph - N/A   Clear